Location: Quebec
(46.8000°N, 71.2500°W)
Time: 12:04:57
(UTC-05:00)

Tiangong 2 - Pass Details

Date: 16 October 2017
Orbit: 386 x 390 km, 42.8° (Epoch: 13 December)

Event Time Altitude Azimuth Distance (km) Brightness Sun altitude
Exits shadow 04:43:16 21° 121° (ESE) 939 3.5 -24.8°
Drops below altitude 10° 04:44:35 10° 108° (ESE) 1,422 4.7 -24.6°
Sets 04:46:44 0° 101° (E) 2,278 6.1 -24.2°
